Location: �clusier
(49.9361°N, 2.7869°E)
Time: 12:08:32
(UTC+00:00)

Cosmos 1452 Rocket - Pass Details

Date: 30 October 2021
Orbit: 767 x 775 km, 74.1° (Epoch: 26 November)

Event Time Altitude Azimuth Distance (km) Brightness Sun altitude
Rises 05:23:51 0° 334° (NNW) 3,266 6.4 -11.9°
Reaches altitude 10° 05:26:16 10° 331° (NNW) 2,334 5.7 -11.6°
Maximum altitude 05:31:30 65° 251° (WSW) 850 3.5 -10.7°
Drops below altitude 10° 05:36:43 10° 170° (S) 2,315 6.3 -9.9°
Sets 05:39:05 0° 168° (SSE) 3,236 7.1 -9.5°
